Location: Cussy
(47.0410°N, 4.6412°E)
Time: 14:40:45
(UTC+00:00)

CSL-04 Rocket - Pass Details

Date: 30 November 2020
Orbit: 807 x 859 km, 98.9° (Epoch: 27 January)

Event Time Altitude Azimuth Distance (km) Brightness Sun altitude
Exits shadow 18:01:06 40° 56° (NE) 1,191 4.0 -20.9°
Drops below altitude 10° 18:05:39 10° 358° (N) 2,407 6.0 -21.6°
Sets 18:08:06 0° 352° (N) 3,340 6.8 -22.1°
